FALCON 9 DEB (53440 NORAD) Tracking and Keplerian Element Data

This shows tracking and keplerian element data for the satellite.

Feedback or suggestion? Click here.




ElementValue
Catalog53440
NameFALCON 9 DEB
Epoch Orbit327
Epoch Day242.22014146
Epoch Year2022
RAAN144.66
Inclination53.2157
Eccentricity0.0015736
Argument of Perigee141.607
Mean Anonmoly218.61
Mean Motion16.35564367
Decay Rate0.04948382
L11 53440U 22097BE 22242.22014146 .04948382 12138-4 57153-3 0 9999
L22 53440 53.2157 144.6600 0015736 141.6070 218.6100 16.35564367 3279

Live tracking and technical data element details for FALCON 9 DEB (NORAD 53440). FALCON 9 DEB can be tracked NOW for your location showing map with azimuth and elevation plus other details from your city location.

Track the satellite on the map from your city or location and see movement details for azimuth, elevation, latitude, longitude, range, height, and movement on the map or in text.







IsCatalogInMostPopularTable: catalog: 53440, numindb: 2
Update: records affected: 1



GetName: 53440 FALCON 9 DEB

Hit Count: updated at: Wed, 28 Sep 2022 23:07:49 GMT